Regional Weather Roundup
Issued by NWS Wakefield, VA

Home | Current Version | Previous Version | Text Only | Print | Product List | Glossary On
Versions: 1 2 3 4 5 6 7 8 9 10 11 12 13 14 15 16 17 18 19 20 21 22 23 24 25 26 27 28 29 30 31 32 33 34 35 36 37 38 39 40 41 42 43 44 45 46 47 48 49 50
000
ASUS41 KAKQ 210310
RWRAKQ

REGIONAL WEATHER ROUNDUP
NATIONAL WEATHER SERVICE WAKEFIELD VA
1100 PM EDT SAT SEP 20 2014

Note: "fair" indicates few or no clouds below 12,000 feet with no
significant weather and/or obstructions to visibility. * = Denotes
station may not report precipitation (e.g., rain,snow,etc.),
thunder or fog.

VAZ042-051-052>054-056-210400-
NORTHERN VIRGINIA

CITY           SKY/WX    TMP DP  RH WIND       PRES   REMARKS
WASH NATIONAL  CLEAR     70  61  73 SW6       30.06R
DULLES         CLEAR     63  60  90 SW3       30.07R
FORT BELVOIR   CLEAR     64  61  93 NW2       30.07R
QUANTICO       CLEAR     70  63  78 VRB5      30.06R
FREDERICKSBRG* CLEAR     66  61  86 CALM      30.04S
STAFFORD*      CLEAR     60  60 100 NW6       30.10R
WARRENTON      CLEAR     61  61  99 CALM      30.07R
CULPEPER*      CLEAR     63  57  82 CALM      30.09R
MANASSAS*      CLEAR     63  63 100 NW3       30.07R
LEESBURG*      CLEAR     64  63  94 S6        30.08R
WINCHESTER     CLEAR     66  54  63 S3        30.08R
FRONT ROYAL*   CLEAR     66  59  77 S5        30.07R
LURAY*         CLEAR     63  59  88 W5        30.09R
$$

VAZ048-049-060>072-079>083-210400-
CENTRAL AND SOUTH CENTRAL VIRGINIA...AND NORTH CENTRAL NORTH CAROLINA

CITY           SKY/WX    TMP DP  RH WIND       PRES   REMARKS
RICHMOND       MOCLDY    67  63  87 N3        30.04S
CHESTERFIELD*  MOCLDY   N/A N/A N/A CALM      30.05S
PETERSBURG*    MOCLDY    63  62  94 CALM      30.04R
HANOVER        PTCLDY    64  62  93 CALM      30.06S
TAPPAHANNOCK*  PTCLDY    63  61  92 CALM      30.04S
CHARLOTTSVILLE CLEAR     62  58  86 NW3       30.09R
ORANGE*        CLEAR     61  57  88 CALM      30.09R
LOUISA*        CLEAR     63  61  94 CALM      30.06R
FARMVILLE*     PTCLDY    64  63  94 CALM      30.03F
CREWE*         MOCLDY    63  60  90 CALM      30.04S
FORT PICKETT*  MOCLDY    64  62  96 CALM      30.04S
LUNENBURG*     MOCLDY    65  63  93 N3        30.04S
SOUTH HILL*    MOCLDY    66  66 100 N3        30.07F
LAWRENCEVILLE* MOCLDY    66  64  94 CALM      30.01F
ROANOKE RAPIDS MOCLDY    64  64 100 CALM      30.00F
RALEIGH        CLOUDY    68  61  78 NE5       30.01F
$$

VAZ088>098-210400-
SOUTHEAST VIRGINIA

CITY           SKY/WX    TMP DP  RH WIND       PRES   REMARKS
NORFOLK        CLOUDY    72  69  90 E5        29.99F
VIRGINIA BEACH CLOUDY    73  70  90 E5        29.98F
NORFOLK NAVAL  CLOUDY    73  69  87 E6        30.00F
WEST POINT*    MOCLDY    66  64  91 CALM      30.03F
NEWPORT NEWS   CLOUDY    73  67  81 E5        30.00F
LANGLEY AFB    CLOUDY    71  71 100 NE5       29.99F
FORT EUSTIS    CLOUDY    70  70 100 N2        29.98F
WILLIAMSBURG*  CLOUDY    70  66  88 CALM      30.01F
HR EXEC AP*    CLOUDY    66  64  94 CALM      30.01F
FRANKLIN*      CLOUDY    66  64  94 CALM      29.99F
WAKEFIELD      CLOUDY    68  64  87 CALM      30.00F
$$

VAZ020-022-025-037-045-210400-
WEST CENTRAL AND SOUTHWEST VIRGINIA

CITY           SKY/WX    TMP DP  RH WIND       PRES   REMARKS
STAUNTON*      CLEAR     60  53  79 CALM      30.11S
HOT SPRINGS VA CLEAR     57  42  56 S6        30.20S
LYNCHBURG      CLEAR     59  58  96 CALM      30.10R
DANVILLE       MOCLDY    62  58  86 CALM      30.05S
SOUTH BOSTON*  NOT AVBL
MARTINSVILLE   PTCLDY    59  59 100 CALM      30.10R FOG
ROANOKE        CLEAR     62  58  86 CALM      30.11R
BLACKSBURG     CLEAR     57  57 100 CALM      30.16R FOG
DUBLIN*        CLEAR     60  60 100 CALM      30.15R
MARION*        CLEAR     58  56  94 CALM      30.17R
HILLSVILLE*    CLEAR     59  55  87 CALM      30.15S
RICHLANDS*     CLEAR     68  58  68 CALM      30.14S
WISE*          CLEAR     61  54  77 S3        30.15S
ABINGDON*      CLEAR     63  58  85 CALM      30.11S
$$

MDZ021>025-VAZ099-100-210400-
SOUTHERN MARYLAND AND THE DELMARVA PENINSULA

CITY           SKY/WX    TMP DP  RH WIND       PRES   REMARKS
PATUXENT RIVER MOCLDY    69  64  84 NE3       30.03F
BAY BRIDGE APT   N/A     66  61  82 E5        30.05S
LEONARDTOWN    MOCLDY    63  59  88 CALM      30.06S
DOVER          CLOUDY    70  67  93 SE1       30.03F
GEORGETOWN     MOCLDY    69  66  90 E7        30.04F
EASTON         PTCLDY    65  65 100 CALM      30.08F
CAMBRIDGE      CLOUDY    70  64  83 N3        30.03F
SALISBURY      CLOUDY    71  66  84 CALM      30.02F
OCEAN CITY     MOCLDY    72  68  87 E5        30.02F
WALLOPS ISLAND CLOUDY    71  69  93 E6        30.01F
ACCOMACK*      CLOUDY    66  64  94 CALM      30.00F FOG
$$

NCZ012>017-030>032-210400-
EASTERN NORTH CAROLINA

CITY           SKY/WX    TMP DP  RH WIND       PRES   REMARKS
ELIZABETH CITY CLOUDY    72  70  94 NE7       29.97F
AHOSKIE*       CLOUDY    67  65  91 N5        29.98F
EDENTON*       CLOUDY    70  68  95 E3        29.97F
CURRITUCK*     CLOUDY    73  71  91 NE3       29.99F
KILL DEVIL HLS DRIZZLE   74  71  92 E6        29.96F
MANTEO         DRIZZLE   73  71  94 E8        29.97F
CAPE HATTERAS  LGT RAIN  69  69 100 E10       29.94F
TARBORO*       CLOUDY    69  65  88 CALM      29.99F
GOLDSBORO      CLOUDY    71  70  98 VRB1      29.94F
WASHINGTON     CLOUDY    69  67  95 NE6       29.96F
GREENVILLE     LGT RAIN  70  68  94 NE6       29.98F
NEW BERN       LGT RAIN  72  69  90 NE9       29.94F
WILMINGTON     CLOUDY    70  68  93 N13       29.89F
$$

VAZ048-210400-
ELSEWHERE

CITY           SKY/WX    TMP DP  RH WIND       PRES   REMARKS
HARRISBURG PA  PTCLDY    65  59  81 E3        30.06R
BALTIMORE      PTCLDY    64  60  87 CALM      30.05S
ANNAPOLIS      CLEAR     71  63  75 SE9       30.05S
ANDREWS AFB    CLEAR     66  62  86 SW5       30.06R
WILMINGTON DE  CLEAR     68  63  84 E3        30.07F
PHILADELPHIA   MOCLDY    67  62  84 CALM      30.06F
WILDWOOD NJ*   MOCLDY    70  64  83 E5        30.05S
ATLANTIC CITY  CLOUDY    70  68  93 MISG      30.05F
HENDERSON NC   CLOUDY    64  60  89 N3        30.03S
GREENSBORO     MOCLDY    67  59  75 CALM      30.05S
ROCKY MOUNT    CLOUDY    69  65  86 NE6       29.98F
FAYETTEVILLE   CLOUDY    70  64  81 N9        29.96F
CHARLOTTE      PTCLDY    67  59  75 N6        30.05R
$$

VAZ100-210400-
MARINE

STATION/POSITION TIME  TEMP    WIND        PRES    WAVE   SWELL
                       AIR SEA DIR/SP/G            HT/PER HT/PER
                 (UTC) (F)     (DEG/KT/KT) (MB)    (FT/S) (FT/S)
44066 TX TWR #4  0300   73 72  140/ 17/ 21 1017.9F   5/ 8
CAPE MAY NJ      0300   70 75  110/  5/  6 1016.8R
LEWES DE         0300   71 72  110/  6/  7 1016.4F
15NM E FENWICK I 0300   72 72              1016.3F   6/ 9
OCEAN-CITY-INLET 0300   72 72  120/  3/  5 1016.2F
WACHAPREAGUE VA  0300   72 74  100/  1/  2 1016.2F
THOMAS POINT MD  0300   70 74  120/  8/  8 1018.2F
GOOSES REEF MD   0300   71     140/  6/  8 1017.9S
COVE POINT MD    0300   70     140/  5/  7 1017.1F
SOLOMONS ISLAND  0300      76                N/A
BISHOPS HEAD MD  0300   70 73   60/  5/  8 1016.2S
PINEY POINT MD   0300           20/  5/  5   N/A
POTOMAC MD       0300   71     110/  6/ 10 1015.8S
CAMBRIDGE MD     0300   69 74   30/  5/  6 1017.1S
LEWISETTA VA     0300   72 75   90/  6/  7 1016.1S
RAPPAHANNOCK LGT 0300           70/  4/  5 1016.6F
STINGRAY PT      0300   72     100/  8/ 10   N/A
YORK RVR RNG VA  0300   72     100/  7/  8 1015.6F
YORKTOWN VA      0300   72 76  100/ 10/ 12 1015.8F
JAMESTOWN VA     0300   69      40/  2/  4   N/A
DOMINION TERM VA 0300   73      80/  8/ 11 1016.0F
KIPTOPEKE VA     0300      78   90/  6/  7   N/A
CHES BAY BRIDGE  0300   73 75   70/  8/ 11 1015.3F
CAPE HENRY VA    0300   73      80/ 11/ 14 1014.5F
CHESAPEAKE LGHT  0200   73      80/ 14/ 15 1016.8F
WILLOUBY STN VA  0300   72      50/  5/  8 1014.6S
S CRANEY ISL VA  0300           50/  5/  7 1015.3F
CAPE HENRY BUOY  0300      75                N/A     6/10   2/11
1ST LANDING BUOY 0300   74      90/ 12/ 14 1015.4F
CAPE CHARLES BUO 0300      74                N/A     5/10   5/10
OFFSHORE WE BUOY 0300      74                N/A     7/10   7/10
64NM E OF VA BCH 0300   76 77  140/ 12/ 14 1014.9F   7/ 8   7/ 8
DUCK PIER NC     0300   74 74  100/ 12/ 16 1014.5F
44100 DUCK FRF   0300      74                N/A     7/10   3/11
44056 DUCK FRF   0300                        N/A     6/ 9   2/11
OREGON INLET NC  0300   74 73   70/  9/ 13 1014.7F
HATTERAS NC      0300   71 74   80/ 12/ 21 1014.3F
DIAMOND SHLS NC  0300   74      70/ 17/ 21 1012.7F   8/10   5/10
CAPE LOOKOUT NC  0300   72      10/ 13/ 15 1011.7F
$$


USA.gov is the U.S. government's official web portal to all federal, state and local government web resources and services.